Home > Weather > Fatehpur > Past weeks

Flag for India Past Weather in Fatehpur, Uttar Pradesh, India — Yesterday and Last 2 Weeks

Now
90 °F

Broken clouds.


Feels Like: 124 °F
Forecast: 80 / 92 °F
Wind: 7 mph from Southeast

Location: Lucknow / Amausi

Current Time: Aug 24, 2016 at 11:56:36 AM

Latest Report: Aug 24, 2016 at 11:00 AM


Visibility: 2 mi

Pressure: 29.65 "Hg

Humidity: 94%

Dew Point: 88 °F

Location of FatehpurLocation

Past Weather in Fatehpur — Graph

°F

Fatehpur Temperature Yesterday

Maximum temperature yesterday: 88 °F (at 2:00 PM)
Minimum temperature yesterday: 81 °F (at 5:00 AM)
Average temperature yesterday: 84 °F

High & Low Weather Summary for the Past Weeks

 TemperatureHumidityPressure
High97 °F (Aug 13, 2:00 PM)100% (Aug 9, 7:51 PM)29.68 "Hg (Aug 9, 7:51 PM)
Low77 °F (Aug 17, 12:00 AM)63% (Aug 13, 4:30 PM)29.36 "Hg (Aug 16, 4:00 PM)
Average85 °F90%29.52 "Hg
* Reported Aug 9 10:30 AM — Aug 24 10:30 AM, Fatehpur, Weather by CustomWeather, © 2016

Note: Actual official high and low records may vary slightly from our data, if they occured in-between our weather recording intervals... More about our weather records

Advertising

Fatehpur Weather History for the Previous 24 Hours

Scroll right to see more
 ConditionsComfort  
Time TempWeatherWind HumidityBarometerVisibility
10:30 AM
Wed, Aug 24
88 °FBroken clouds.3 mph94%29.65 "Hg2 mi
10:00 AM86 °FPartly sunny.3 mph94%29.65 "Hg2 mi
9:30 AM84 °FPartly sunny.3 mph100%29.65 "Hg2 mi
9:00 AM84 °FPartly sunny.5 mph94%29.65 "Hg2 mi
8:30 AM84 °FPartly sunny.6 mph94%29.65 "Hg1 mi
7:30 AM82 °FPartly sunny.6 mph94%29.62 "Hg1 mi
7:00 AM81 °FCloudy.6 mph100%29.62 "Hg1 mi
6:30 AM81 °FMostly cloudy.3 mph100%29.62 "Hg1 mi
6:00 AM81 °FMostly cloudy.3 mph100%29.62 "Hg2 mi
5:30 AM81 °FPartly cloudy.3 mph100%29.59 "Hg2 mi
5:00 AM81 °FPartly cloudy.5 mph100%29.59 "Hg2 mi
4:00 AM81 °FPartly cloudy.No wind100%29.59 "Hg2 mi
3:00 AM81 °FLight rain. Partly cloudy.2 mph100%29.59 "Hg2 mi
2:00 AM81 °FPartly cloudy.2 mph100%29.59 "Hg2 mi
1:00 AM81 °FPartly cloudy.5 mph100%29.59 "Hg2 mi
12:00 AM82 °FPartly cloudy.2 mph94%29.59 "Hg2 mi
11:00 PM
Tue, Aug 23
82 °FPartly cloudy.3 mph94%29.62 "Hg2 mi
10:00 PM82 °FPartly cloudy.5 mph94%29.62 "Hg2 mi
9:00 PM82 °FPartly cloudy.5 mph100%29.62 "Hg2 mi
8:30 PM82 °FPartly cloudy.6 mph100%29.59 "Hg2 mi
8:00 PM84 °FPartly cloudy.8 mph94%29.59 "Hg2 mi
7:30 PM84 °FPartly cloudy.7 mph94%29.56 "Hg3 mi
7:00 PM84 °FBroken clouds.7 mph94%29.56 "Hg3 mi
6:30 PM86 °FBroken clouds.9 mph89%29.53 "Hg3 mi
6:00 PM88 °FBroken clouds.6 mph84%29.53 "Hg3 mi
5:30 PM88 °FBroken clouds.9 mph84%29.53 "Hg3 mi
5:00 PM88 °FBroken clouds.14 mph84%29.53 "Hg3 mi
4:30 PM88 °FBroken clouds.14 mph84%29.53 "Hg3 mi
4:00 PM88 °FBroken clouds.12 mph84%29.53 "Hg3 mi
3:30 PM86 °FBroken clouds.10 mph89%29.56 "Hg3 mi
3:00 PM88 °FBroken clouds.13 mph84%29.53 "Hg3 mi
2:30 PM88 °FBroken clouds.12 mph84%29.56 "Hg3 mi
2:00 PM88 °FBroken clouds.12 mph89%29.56 "Hg3 mi
1:30 PM86 °FPartly sunny.12 mph89%29.59 "Hg3 mi
1:00 PM86 °FMostly cloudy.12 mph89%29.59 "Hg3 mi
12:30 PM84 °FMostly cloudy.14 mph94%29.59 "Hg3 mi
12:00 PM84 °FCloudy.12 mph94%29.62 "Hg3 mi
11:30 AM84 °FCloudy.14 mph89%29.62 "Hg3 mi
Weather by CustomWeather, © 2016

See weather overviewHow to use our weather pages